Hattiesburg, MS

6:43 PM CDT on May 23, 2017 (GMT -0500)
Chain Municipal

Weather History for KHBG - January, 2005

Change the Weather History Date:

Monday, January 31, 2005

  Actual Average Record
Temperature  
Mean Temperature 42 °F 49 °F  
Max Temperature 46 °F 60 °F 83 °F (1950)
Min Temperature 39 °F 37 °F 10 °F (1966)
Degree Days  
Heating Degree Days 22 16  
Month to date heating degree days 519  
Since 1 July heating degree days 1299  
Cooling Degree Days 0 0  
Month to date cooling degree days 6  
Year to date cooling degree days 6  
Moisture  
Dew Point 42 °F    
Average Humidity 92    
Maximum Humidity 100    
Minimum Humidity 79    
Precipitation  
Precipitation 1.09 in 0.22 in 1.74 in (2008)
Month to date precipitation 5.74  
Year to date precipitation 5.74  
Sea Level Pressure  
Sea Level Pressure 30.17 in    
Wind  
Wind Speed 4 mph (NE)    
Max Wind Speed 9 mph    
Max Gust Speed -    
Visibility 7 miles    
Events Rain    
T = Trace of Precipitation, MM = Missing Value Source: NWS Daily Summary

Daily Weather History Graph

Daily Weather History Graph

Search for Another Location

Airport or City:

Trip Planner

Search our weather history database for the weather conditions in past years. The results will help you decide how hot, cold, wet, or windy it might be!

Date:

Astronomy

Jan. 31, 2005 Rise Set
Actual Time 6:49 AM CST 5:31 PM CST
Civil Twilight 6:24 AM CST 5:56 PM CST
Nautical Twilight 5:55 AM CST 6:26 PM CST
Astronomical Twilight 5:26 AM CST 6:54 PM CST
Moon 11:27 PM CST (1/31) 10:13 AM CST (1/31)
Length of Visible Light 11h 32m
Length of Day
10h 41m
Waning Gibbous, 66% of the Moon is Illuminated
Jan 31
Waning Gibbous
Feb 2
Last Quarter
Feb 8
New
Feb 15
First Quarter
Feb 23
Full

Hourly Weather History & Observations

Time (CST) Temp. Windchill Dew Point Humidity Pressure Visibility Wind Dir Wind Speed Gust Speed Precip Events Conditions
12:53 AM 39.9 °F 37.8 °F 37.9 °F 93% 30.14 in 10.0 mi ENE 3.5 mph - N/A   Partly Cloudy
1:53 AM 39.0 °F - 37.0 °F 93% 30.14 in 10.0 mi Calm Calm - N/A   Clear
2:53 AM 39.9 °F 36.7 °F 37.9 °F 93% 30.14 in 10.0 mi ENE 4.6 mph - N/A   Clear
3:44 AM 41.0 °F - 37.4 °F 87% 30.16 in 10.0 mi Calm Calm - N/A   Mostly Cloudy
3:53 AM 39.9 °F - 37.9 °F 93% 30.16 in 10.0 mi Calm Calm - N/A   Mostly Cloudy
4:31 AM 42.8 °F - 39.2 °F 87% 30.18 in 9.0 mi Calm Calm - N/A   Overcast
4:53 AM 42.1 °F 40.2 °F 39.0 °F 89% 30.18 in 10.0 mi NNE 3.5 mph - N/A   Overcast
5:53 AM 42.1 °F - 39.0 °F 89% 30.18 in 10.0 mi Calm Calm - N/A   Overcast
6:53 AM 43.0 °F 38.8 °F 39.0 °F 86% 30.18 in 10.0 mi East 6.9 mph - N/A   Overcast
7:53 AM 44.1 °F 40.1 °F 39.0 °F 82% 30.20 in 10.0 mi East 6.9 mph - N/A   Overcast
8:53 AM 45.0 °F 40.1 °F 39.9 °F 82% 30.20 in 10.0 mi East 9.2 mph - N/A   Overcast
9:53 AM 45.0 °F 41.2 °F 39.0 °F 80% 30.22 in 10.0 mi East 6.9 mph - N/A   Overcast
10:53 AM 46.0 °F 42.5 °F 39.9 °F 79% 30.20 in 10.0 mi East 6.9 mph - N/A   Overcast
11:53 AM 46.0 °F 43.9 °F 41.0 °F 83% 30.19 in 6.0 mi ENE 4.6 mph - 0.00 in Rain Light Rain
12:53 PM 45.0 °F 43.5 °F 43.0 °F 93% 30.17 in 4.0 mi Variable 3.5 mph - 0.05 in Rain Rain
1:53 PM 45.0 °F 40.6 °F 42.1 °F 90% 30.14 in 4.0 mi East 8.1 mph - 0.10 in Rain Rain
3:17 PM 46.4 °F 45.2 °F 44.6 °F 93% 30.14 in 2.5 mi Variable 3.5 mph - 0.02 in Rain Rain
3:29 PM 46.4 °F 43.5 °F 44.6 °F 93% 30.14 in 2.0 mi NNE 5.8 mph - 0.04 in Rain Rain
3:45 PM 46.4 °F 45.2 °F 44.6 °F 93% 30.14 in 2.5 mi North 3.5 mph - 0.06 in Rain Light Rain
3:53 PM 46.0 °F 44.8 °F 44.1 °F 93% 30.14 in 2.5 mi NE 3.5 mph - 0.06 in Rain Light Rain
4:53 PM 45.0 °F 41.8 °F 44.1 °F 97% 30.16 in 2.5 mi North 5.8 mph - 0.10 in Rain Rain
5:00 PM 44.6 °F 41.4 °F 44.6 °F 100% 30.16 in 4.0 mi North 5.8 mph - 0.01 in Rain Rain
5:12 PM 44.6 °F 41.4 °F 44.6 °F 100% 30.15 in 4.0 mi NE 5.8 mph - 0.04 in Rain Rain
5:53 PM 45.0 °F 42.6 °F 43.0 °F 93% 30.15 in 6.0 mi NE 4.6 mph - 0.08 in Rain Rain
6:53 PM 45.0 °F 42.6 °F 43.0 °F 93% 30.17 in 6.0 mi East 4.6 mph - 0.12 in Rain Rain
7:13 PM 44.6 °F 43.1 °F 44.6 °F 100% 30.17 in 5.0 mi ENE 3.5 mph - 0.07 in Rain Heavy Rain
7:53 PM 45.0 °F 41.8 °F 44.1 °F 97% 30.17 in 5.0 mi North 5.8 mph - 0.21 in Rain Heavy Rain
8:53 PM 45.0 °F 43.5 °F 44.1 °F 97% 30.18 in 7.0 mi NE 3.5 mph - 0.09 in Rain Light Rain
9:53 PM 45.0 °F 41.8 °F 44.1 °F 97% 30.17 in 7.0 mi ENE 5.8 mph - 0.04 in Rain Light Rain
10:53 PM 45.0 °F 42.6 °F 44.1 °F 97% 30.17 in 7.0 mi ENE 4.6 mph - 0.09 in Rain Rain
11:53 PM 45.0 °F 41.8 °F 44.1 °F 97% 30.16 in 7.0 mi NE 5.8 mph - 0.15 in Rain Rain